When you browse on this site, cookies collect data to enhance your experience and personalize the content and advertising you see.
Visit our Privacy Policy to learn more. By continuing to use the site, you agree to this use of cookies and data.
  • In Belgium
  • List of Countries
  • For 7 days
  • Water Temperature
  • Weather Map
  • Weather Widgets
  • user-avatar
    Login

    Hourly Weather Batina

    Today, 19 September, Thursday

    Time Temperature Precipitation Wind Pressure Humidity
    00:00 +25°C° 0 mm 1 mps 673 mmHg 47%
    01:00 +25°C° 0 mm 1 mps 673 mmHg 48%
    02:00 +24°C° 0 mm 2 mps 673 mmHg 48%
    03:00 +24°C° 0 mm 2 mps 672 mmHg 49%
    04:00 +24°C° 0 mm 2 mps 673 mmHg 51%
    05:00 +24°C° 0 mm 2 mps 673 mmHg 52%
    06:00 +23°C° 0 mm 2 mps 673 mmHg 54%
    07:00 +25°C° 0 mm 3 mps 673 mmHg 48%
    08:00 +26°C° 0 mm 5 mps 674 mmHg 42%
    09:00 +28°C° 0 mm 6 mps 675 mmHg 37%
    10:00 +29°C° 0 mm 6 mps 675 mmHg 32%
    11:00 +30°C° 0 mm 5 mps 675 mmHg 27%
    12:00 +32°C° 0 mm 5 mps 675 mmHg 23%
    13:00 +32°C° 0 mm 5 mps 675 mmHg 24%
    14:00 +32°C° 0 mm 6 mps 674 mmHg 25%
    15:00 +32°C° 0 mm 6 mps 674 mmHg 26%
    16:00 +29°C° 0 mm 5 mps 674 mmHg 31%
    17:00 +28°C° 0 mm 4 mps 673 mmHg 35%
    18:00 +27°C° 0 mm 3 mps 673 mmHg 40%
    19:00 +27°C° 0 mm 2 mps 673 mmHg 41%
    20:00 +26°C° 0 mm 2 mps 673 mmHg 42%
    21:00 +26°C° 0 mm 1 mps 674 mmHg 43%
    22:00 +25°C° 0 mm 2 mps 673 mmHg 43%
    23:00 +25°C° 0 mm 2 mps 673 mmHg 42%

    Tomorrow, 20 September, Friday

    Time Temperature Precipitation Wind Pressure Humidity
    00:00 +25°C° 0 mm 2 mps 673 mmHg 42%
    01:00 +24°C° 0 mm 2 mps 673 mmHg 42%
    02:00 +24°C° 0 mm 2 mps 672 mmHg 42%
    03:00 +24°C° 0 mm 2 mps 672 mmHg 42%
    04:00 +24°C° 0 mm 3 mps 672 mmHg 42%
    05:00 +24°C° 0 mm 3 mps 672 mmHg 42%
    06:00 +24°C° 0 mm 3 mps 672 mmHg 42%
    07:00 +26°C° 0 mm 4 mps 673 mmHg 35%
    08:00 +28°C° 0 mm 5 mps 674 mmHg 29%
    09:00 +30°C° 0 mm 6 mps 675 mmHg 23%
    10:00 +32°C° 0 mm 7 mps 675 mmHg 22%
    11:00 +33°C° 0 mm 7 mps 675 mmHg 22%
    12:00 +33°C° 0 mm 8 mps 675 mmHg 21%
    13:00 +33°C° 0 mm 7 mps 675 mmHg 22%
    14:00 +32°C° 0 mm 7 mps 674 mmHg 23%
    15:00 +32°C° 0 mm 7 mps 674 mmHg 24%
    16:00 +30°C° 0 mm 5 mps 674 mmHg 27%
    17:00 +29°C° 0 mm 3 mps 674 mmHg 31%
    18:00 +28°C° 0 mm 1 mps 673 mmHg 34%
    19:00 +27°C° 0 mm 1 mps 674 mmHg 35%
    20:00 +27°C° 0 mm 1 mps 674 mmHg 35%
    21:00 +27°C° 0 mm 1 mps 674 mmHg 36%
    22:00 +26°C° 0 mm 2 mps 674 mmHg 36%
    23:00 +26°C° 0 mm 2 mps 673 mmHg 36%

    Day after tomorrow, 21 September, Saturday

    Time Temperature Precipitation Wind Pressure Humidity
    00:00 +26°C° 0 mm 3 mps 673 mmHg 37%
    01:00 +26°C° 0.1 mm 3 mps 673 mmHg 37%
    02:00 +26°C° 0.1 mm 4 mps 673 mmHg 38%
    03:00 +25°C° 0.1 mm 5 mps 672 mmHg 38%
    04:00 +25°C° 0.1 mm 4 mps 672 mmHg 39%
    05:00 +25°C° 0.1 mm 4 mps 673 mmHg 40%
    06:00 +25°C° 0.1 mm 4 mps 673 mmHg 42%
    07:00 +27°C° 0 mm 6 mps 673 mmHg 37%
    08:00 +29°C° 0 mm 8 mps 674 mmHg 33%
    09:00 +31°C° 0 mm 10 mps 675 mmHg 28%
    10:00 +32°C° 0 mm 10 mps 675 mmHg 26%
    11:00 +33°C° 0 mm 10 mps 675 mmHg 25%
    12:00 +33°C° 0 mm 9 mps 675 mmHg 23%
    13:00 +33°C° 0 mm 9 mps 674 mmHg 23%
    14:00 +33°C° 0 mm 8 mps 674 mmHg 23%
    15:00 +33°C° 0 mm 8 mps 673 mmHg 23%
    16:00 +32°C° 0 mm 7 mps 673 mmHg 26%
    17:00 +30°C° 0 mm 5 mps 673 mmHg 29%
    18:00 +28°C° 0 mm 4 mps 672 mmHg 31%
    19:00 +28°C° 0 mm 4 mps 673 mmHg 30%
    20:00 +28°C° 0 mm 5 mps 673 mmHg 29%
    21:00 +28°C° 0 mm 5 mps 673 mmHg 28%
    22:00 +28°C° 0 mm 6 mps 673 mmHg 29%
    23:00 +28°C° 0 mm 7 mps 673 mmHg 29%

    22 September, Sunday

    Time Temperature Precipitation Wind Pressure Humidity
    00:00 +27°C° 0 mm 8 mps 673 mmHg 30%
    01:00 +27°C° 0 mm 8 mps 673 mmHg 33%
    02:00 +26°C° 0 mm 7 mps 672 mmHg 35%
    03:00 +26°C° 0 mm 6 mps 672 mmHg 38%
    04:00 +26°C° 0 mm 6 mps 672 mmHg 39%
    05:00 +26°C° 0 mm 5 mps 672 mmHg 40%
    06:00 +25°C° 0 mm 4 mps 672 mmHg 41%
    07:00 +27°C° 0 mm 6 mps 673 mmHg 35%
    08:00 +29°C° 0 mm 7 mps 674 mmHg 29%
    09:00 +31°C° 0 mm 8 mps 674 mmHg 23%
    10:00 +32°C° 0 mm 8 mps 674 mmHg 22%
    11:00 +33°C° 0 mm 8 mps 674 mmHg 20%
    12:00 +33°C° 0 mm 8 mps 674 mmHg 19%
    13:00 +33°C° 0 mm 7 mps 674 mmHg 20%
    14:00 +33°C° 0 mm 6 mps 674 mmHg 21%
    15:00 +32°C° 0 mm 5 mps 674 mmHg 22%
    16:00 +30°C° 0 mm 4 mps 673 mmHg 27%
    17:00 +29°C° 0 mm 3 mps 673 mmHg 31%
    18:00 +28°C° 0 mm 2 mps 673 mmHg 35%
    19:00 +28°C° 0 mm 2 mps 674 mmHg 35%
    20:00 +27°C° 0 mm 2 mps 674 mmHg 34%
    21:00 +27°C° 0 mm 2 mps 674 mmHg 33%
    22:00 +27°C° 0 mm 3 mps 674 mmHg 31%
    23:00 +27°C° 0 mm 5 mps 674 mmHg 30%

    23 September, Monday

    Time Temperature Precipitation Wind Pressure Humidity
    00:00 +27°C° 0 mm 6 mps 674 mmHg 28%
    01:00 +27°C° 0 mm 5 mps 674 mmHg 28%
    02:00 +27°C° 0 mm 4 mps 674 mmHg 28%
    03:00 +26°C° 0 mm 3 mps 674 mmHg 28%
    04:00 +26°C° 0 mm 3 mps 674 mmHg 30%
    05:00 +26°C° 0 mm 2 mps 674 mmHg 32%
    06:00 +25°C° 0 mm 1 mps 674 mmHg 34%
    07:00 +27°C° 0 mm 2 mps 674 mmHg 31%
    08:00 +29°C° 0 mm 2 mps 675 mmHg 27%
    09:00 +30°C° 0 mm 3 mps 676 mmHg 23%
    10:00 +32°C° 0 mm 4 mps 676 mmHg 22%
    11:00 +33°C° 0 mm 5 mps 676 mmHg 20%
    12:00 +34°C° 0 mm 6 mps 676 mmHg 19%
    13:00 +34°C° 0 mm 6 mps 675 mmHg 19%
    14:00 +34°C° 0 mm 6 mps 675 mmHg 20%
    15:00 +33°C° 0 mm 6 mps 674 mmHg 21%
    16:00 +32°C° 0 mm 4 mps 674 mmHg 26%
    17:00 +29°C° 0 mm 3 mps 674 mmHg 32%
    18:00 +28°C° 0 mm 1 mps 674 mmHg 37%
    19:00 +27°C° 0 mm 2 mps 674 mmHg 43%
    20:00 +26°C° 0 mm 2 mps 674 mmHg 49%
    21:00 +25°C° 0 mm 2 mps 674 mmHg 55%
    22:00 +24°C° 0 mm 2 mps 674 mmHg 58%
    23:00 +24°C° 0 mm 2 mps 674 mmHg 60%

    24 September, Tuesday

    Time Temperature Precipitation Wind Pressure Humidity
    00:00 +23°C° 0 mm 2 mps 674 mmHg 62%
    01:00 +23°C° 0 mm 1 mps 673 mmHg 64%
    02:00 +22°C° 0 mm 1 mps 673 mmHg 65%
    03:00 +22°C° 0 mm 1 mps 673 mmHg 66%
    04:00 +22°C° 0 mm 1 mps 673 mmHg 64%
    05:00 +22°C° 0 mm 1 mps 673 mmHg 62%
    06:00 +22°C° 0 mm 1 mps 673 mmHg 60%
    07:00 +24°C° 0 mm 1 mps 674 mmHg 54%
    08:00 +25°C° 0 mm 1 mps 674 mmHg 48%
    09:00 +27°C° 0 mm 1 mps 675 mmHg 42%
    10:00 +28°C° 0 mm 2 mps 675 mmHg 38%
    11:00 +30°C° 0 mm 3 mps 675 mmHg 34%
    12:00 +31°C° 0 mm 3 mps 675 mmHg 30%
    13:00 +32°C° 0 mm 4 mps 675 mmHg 30%
    14:00 +32°C° 0 mm 4 mps 675 mmHg 29%
    15:00 +32°C° 0 mm 4 mps 674 mmHg 28%
    16:00 +30°C° 0 mm 3 mps 674 mmHg 33%
    17:00 +29°C° 0 mm 2 mps 674 mmHg 37%
    18:00 +27°C° 0 mm 1 mps 673 mmHg 42%
    19:00 +26°C° 0 mm 1 mps 674 mmHg 45%
    20:00 +26°C° 0 mm 1 mps 674 mmHg 49%
    21:00 +25°C° 0 mm 1 mps 674 mmHg 52%
    22:00 +24°C° 0 mm 1 mps 673 mmHg 55%
    23:00 +24°C° 0 mm 1 mps 673 mmHg 57%
    Show more